Miscellaneous Local Product
Issued by NWS Hastings, NE

Home | Current Version | Previous Version | Graphics & Text | Print | Product List | Glossary On
Versions: 1 2 3 4 5 6 7 8 9 10 11 12 13 14 15 16 17 18 19 20 21 22 23 24 25 26 27 28 29 30 31 32 33 34 35 36 37 38 39 40 41 42 43 44 45 46 47 48 49 50
000
AXUS43 KGID 032202
MISGRI

GID CWA HOURLY WEATHER ROUNDUP
NATIONAL WEATHER SERVICE HASTINGS NE
500 PM CDT TUE MAY 03 2016

NOTE: "FAIR" INDICATES FEW OR NO CLOUDS BELOW 12,000 FEET WITH NO
SIGNIFICANT WEATHER AND/OR OBSTRUCTIONS TO VISIBILITY.

...SOUTH CENTRAL NEBRASKA...

CITY           SKY/WX    TMP DP  RH WIND       PRES   REMARKS
GRAND ISLAND   MOSUNNY   68  40  35 NW17      30.01F
HASTINGS       MOSUNNY   68  40  35 W9        30.01F
KEARNEY        MOSUNNY   68  39  34 NW13      30.03F
ORD            SUNNY     69  41  36 W14G22    29.98F
YORK           MOSUNNY   68  39  34 NW14G20   29.99F
AURORA         MOSUNNY   68  37  32 NW13      30.00S
LEXINGTON      SUNNY     67  41  38 NW13      30.04S
HOLDREGE       MOSUNNY   66  40  38 W8        30.04S
HEBRON         PTSUNNY   71  39  31 W7        30.00F

...NEBRASKA PANHANDLE...

CITY           SKY/WX    TMP DP  RH WIND       PRES   REMARKS
CHADRON        SUNNY     73  37  27 NE9       30.08F
ALLIANCE       SUNNY     69  33  26 N20G25    30.10F
SCOTTSBLUFF    SUNNY     73  36  25 N10       30.11F
SIDNEY         SUNNY     69  26  20 N20G26    30.13S

...WESTERN AND NORTH CENTRAL NEBRASKA...

CITY           SKY/WX    TMP DP  RH WIND       PRES   REMARKS
VALENTINE      SUNNY     72  35  25 N16G26    30.02F
AINSWORTH      SUNNY     69  33  26 NW16      30.01F
ONEILL         SUNNY     69  39  32 NW12G17   29.98F
BROKEN BOW     SUNNY     69  40  34 NW12G24   30.01F
IMPERIAL       SUNNY     68  36  30 N13G21    30.08F
NORTH PLATTE   SUNNY     69  39  33 NW13G18   30.04F
MCCOOK         SUNNY     68  41  37 N14       30.05F

...EASTERN NEBRASKA...

CITY           SKY/WX    TMP DP  RH WIND       PRES   REMARKS
NORFOLK        SUNNY     69  41  36 W16G24    29.94F
SO SIOUX CITY  MOSUNNY   70  46  42 NW13G25   29.90F
TEKAMAH        MOSUNNY   70  44  39 NW15      29.91F
COLUMBUS       MOSUNNY   70  39  32 W12       29.96F
ALBION         SUNNY     69  40  35 NW14G20   29.96F
OMAHA EPPLEY   PTSUNNY   71  41  33 W20       29.93F
OFFUTT AFB     PTSUNNY   71  42  34 W15       29.93F
MILLARD        PTSUNNY   70  42  36 W15G24    29.94F
LINCOLN        MOSUNNY   71  39  31 NW14G21   29.97F
NEBRASKA CITY  MOSUNNY   69  40  34 NW12G18   29.96F
BEATRICE       MOSUNNY   69  40  34 NW7       29.98F
FALLS CITY     MOSUNNY   70  42  36 W10       29.96F

...NORTHERN KANSAS...

CITY           SKY/WX    TMP DP  RH WIND       PRES   REMARKS
GOODLAND       SUNNY     67  35  30 N16G24    30.09F
HILL CITY      MOSUNNY   69  42  37 NW12      30.05F
NORTON         PTCLDY    68  37  32 N6        30.04
PHILLIPSBURG   MOSUNNY   68  43  40 CALM      30.03F
SMITH CENTER   MOSUNNY   66  43  42 CALM      30.02F
BELOIT         PTSUNNY   70  39  32 W3        29.99F
HAYS           MOSUNNY   66  43  42 NW9G16    30.03F
RUSSELL        SUNNY     69  41  36 NW10      30.01S
CONCORDIA      MOSUNNY   68  42  38 NW6       29.99F
SALINA         SUNNY     75  41  29 W10       29.98F
TOPEKA         MOSUNNY   71  42  35 W9        29.97F



USA.gov is the U.S. government's official web portal to all federal, state and local government web resources and services.